Volver al catálogo

NOAA 16 DEB

ActivoSSO
NORAD 41153·DEBRIS·🇺🇸 United States

Lanzado Sep 21, 2000 desde Vandenberg Space Force Base

Loading…

Próximos Pases (próximas 24 horas)

TLE

ActualizadoSource: Space-Track

Época: Sep 14, 2026, 13:20 UTC

1 41153U 00055CL  26257.55623835  .00003741  00000-0  12218-2 0  9994
2 41153  98.7959  15.7186 0016140 230.4488 129.5273 14.39121574559568

Sigue NOAA 16 DEB en tiempo real con AllMySat

Download on the App Store